This is the latest recevied weather packets stored in our database for station/object KD8DNS. If no packets are shown the sender has not sent any weather packets the latest 10 day(s).
| Time | Temp. | Humidity | Pressure | Rain* | Wind** | Luminosity | Snow |
|---|---|---|---|---|---|---|---|
| 1788559927 | 23.89° C | 98% | 1016.2 hPa | 0 mm | - | 14 W/m² | - |
| 1788559621 | 23.89° C | 98% | 1016.4 hPa | 0 mm | - | 18 W/m² | - |
| 1788559316 | 23.89° C | 98% | 1016.9 hPa | 0 mm | - | 25 W/m² | - |
| 1788559016 | 23.89° C | 97% | 1017.1 hPa | 0 mm | - | 34 W/m² | - |
| 1788558713 | 23.89° C | 97% | 1016.8 hPa | 0 mm | - | 36 W/m² | - |
| 1788558441 | 23.89° C | 97% | 1016.8 hPa | 0 mm | - | 40 W/m² | - |
| 1788558109 | 23.33° C | 96% | 1016.9 hPa | 0 mm | - | 30 W/m² | - |
| 1788557806 | 23.33° C | 95% | 1017.1 hPa | 0 mm | - | 14 W/m² | - |
| 1788557503 | 23.89° C | 95% | 1017.3 hPa | 0 mm | - | 12 W/m² | - |
| 1788557198 | 23.89° C | 93% | 1017.5 hPa | 0 mm | - | 11 W/m² | - |
| 1788556893 | 25° C | 91% | 1018 hPa | 0 mm | - | 10 W/m² | - |
| 1788556626 | 26.67° C | 87% | 1017.7 hPa | 0 mm | - | 7 W/m² | - |
| 1788556288 | 28.89° C | 80% | 1018.8 hPa | 0 mm | - | 8 W/m² | - |
| 1788555987 | 29.44° C | 77% | 1018.5 hPa | 0 mm | - | 13 W/m² | - |
| 1788555678 | 30° C | 74% | 1017.8 hPa | 0 mm | - | 21 W/m² | - |
| 1788555373 | 30.56° C | 68% | 1017.4 hPa | 0 mm | - | 26 W/m² | - |
| 1788555069 | 31.11° C | 66% | 1017.6 hPa | 0 mm | - | 34 W/m² | - |
| 1788554765 | 31.67° C | 64% | 1018.1 hPa | 0 mm | - | 50 W/m² | - |
| 1788554461 | 32.22° C | 64% | 1017.8 hPa | 0 mm | - | 72 W/m² | - |
| 1788554157 | 32.78° C | 61% | 1017.3 hPa | 0 mm | - | 115 W/m² | - |
| 1788553853 | 33.89° C | 59% | 1017.4 hPa | 0 mm | - | 178 W/m² | - |
| 1788553549 | 35° C | 56% | 1017.7 hPa | 0 mm | - | 345 W/m² | - |
| 1788553245 | 35° C | 57% | 1017.4 hPa | 0 mm | - | 570 W/m² | - |
| 1788552939 | 35° C | 57% | 1017.3 hPa | 0 mm | - | 507 W/m² | - |
| 1788552634 | 34.44° C | 62% | 1017.7 hPa | 0 mm | - | 489 W/m² | - |
* Rain latest hour (hover to see other rain measurements)
** Current wind speed in m/s (hover to see current wind gust speed)